This demonstration page uses our WeatherBlox Daily Observations layout. Learn more.

Left ArrowRight Arrow

44.8408, -93.29828

Hourly Observations for April 27, 2017

Temp ( °F °C ) Dew Point ( °F °C ) Humidity (%) Winds ( mph kmh ) Pressure ( in mb ) Visibility ( mi km ) Precip ( " mm )
12:39 am 00:39 Cloudy 36 2.2 30 -1.1 79 79 N 9 15 29.59 1002 10 16 0.00 0.00
12:53 am 00:53 Cloudy 36 2.2 30 -1.1 79 79 N 12 19 29.58 1002 10 16 0.00 0.00
1:53 am 01:53 Cloudy 36 2.2 30 -1.1 79 79 N 8 13 29.58 1002 10 16 0.00 0.00
2:53 am 02:53 Cloudy 35 1.7 30 -1.1 82 82 NNW 7 11 29.58 1002 10 16 0.00 0.00
3:23 am 03:23 Cloudy with Haze 35 1.7 30 -1.1 82 82 N 8 13 29.56 1001 6 10 0.00 0.00
3:49 am 03:49 Cloudy 36 2 30 -1 81 81 NW 10 17 29.56 1001 10 16 0.00 0.00
3:53 am 03:53 Cloudy 35 1.7 30 -1.1 82 82 NW 10 17 29.55 1001 10 16 0.00 0.00
4:11 am 04:11 Cloudy 35 1.7 31 -0.6 85 85 NNW 10 17 29.56 1001 10 16 0.00 0.00
4:53 am 04:53 Cloudy with Light Snow 34 1.1 31 -0.6 89 89 NNW 8 13 29.54 1001 9 14 0.00 0.03
5:53 am 05:53 Cloudy with Mist and Fog 34 1.1 30 -1.1 85 85 NNW 10 17 29.54 1001 4 6 0.00 0.03
6:05 am 06:05 Cloudy 34 1.1 30 -1.1 85 85 NNW 10 17 29.56 1001 9 14 0.00 0.03
6:42 am 06:42 Cloudy with Light Snow 34 1 30 -1 87 87 NNW 10 17 29.56 1001 6 10 0.00 0.00
6:53 am 06:53 Cloudy with Light Snow 34 1.1 30 -1.1 85 85 NNW 14 22 29.54 1000 7 11 0.00 0.03
7:10 am 07:10 Cloudy with Light Snow 34 1 30 -1 87 87 NNW 10 17 29.56 1001 6 10 0.00 0.00
7:53 am 07:53 Cloudy with Light Snow 33 0.6 30 -1.1 89 89 NNW 8 13 29.56 1001 3 4 0.00 0.03
7:56 am 07:56 Cloudy with Light Snow 34 1 30 -1 87 87 N 9 15 29.56 1001 3 4 0.00 0.00
8:00 am 08:00 Cloudy with Light Snow 33 0.6 29 -1.7 85 85 NNW 9 15 29.56 1001 1 2 0.00 0.03
8:05 am 08:05 Cloudy with Light Snow 32 0 29 -1.7 88 88 N 15 24 29.59 1002 2 3 0.01 0.25
8:07 am 08:07 Cloudy with Light Snow 32 0 29 -1.7 88 88 NNW 13 20 29.59 1002 3 5 0.01 0.25
8:21 am 08:21 Cloudy 33 0.6 28 -2.2 82 82 NNW 14 22 29.56 1001 7 11 0.01 0.25
8:53 am 08:53 Cloudy 33 0.6 28 -2.2 82 82 NNW 14 22 29.56 1001 10 16 0.01 0.25
9:16 am 09:16 Cloudy 32 0 27 -2.8 82 82 NNW 13 20 29.62 1003 10 16 0.00 0.00
9:53 am 09:53 Cloudy 33 0.6 27 -2.8 78 78 NNW 12 19 29.58 1002 10 16 0.00 0.00
10:35 am 10:35 Cloudy 33 0.6 27 -2.8 78 78 NW 10 17 29.62 1003 8 13 0.00 0.00
10:53 am 10:53 Cloudy 34 1.1 26 -3.3 73 73 NW 13 20 29.59 1002 10 16 0.00 0.00
11:53 am 11:53 Cloudy 34 1.1 26 -3.3 73 73 WNW 12 19 29.60 1003 10 16 0.00 0.00
12:53 pm 12:53 Cloudy 34 1.1 25 -3.9 70 70 NW 15 24 29.61 1003 10 16 0.00 0.00
1:53 pm 13:53 Cloudy 34 1.1 25 -3.9 70 70 NW 17 28 29.62 1003 10 16 0.00 0.00
2:53 pm 14:53 Cloudy 34 1.1 25 -3.9 70 70 WNW 15 24 29.64 1004 10 16 0.00 0.00
3:53 pm 15:53 Cloudy 35 1.7 24 -4.4 64 64 W 16 26 29.65 1004 10 16 0.00 0.00
4:53 pm 16:53 Cloudy 35 1.7 24 -4.4 64 64 NW 13 20 29.66 1004 10 16 0.00 0.00
5:53 pm 17:53 Cloudy 34 1.1 23 -5 64 64 NW 15 24 29.69 1005 10 16 0.00 0.00
6:53 pm 18:53 Cloudy 34 1.1 24 -4.4 67 67 NW 13 20 29.71 1006 10 16 0.00 0.00
7:53 pm 19:53 Cloudy 34 1.1 23 -5 64 64 NW 9 15 29.74 1007 10 16 0.00 0.00
8:53 pm 20:53 Cloudy 34 1.1 23 -5 64 64 WNW 9 15 29.77 1008 10 16 0.00 0.00
9:53 pm 21:53 Cloudy 35 1.7 24 -4.4 64 64 WNW 8 13 29.79 1009 10 16 0.00 0.00
10:53 pm 22:53 Cloudy 35 1.7 24 -4.4 64 64 W 12 19 29.80 1009 10 16 0.00 0.00
11:53 pm 23:53 Mostly Cloudy 36 2.2 25 -3.9 64 64 WSW 9 15 29.81 1010 10 16 0.00 0.00

Powered by AerisWeather